Temp
-12 -12 -12 -12 -12 -12 -12 -12 -12 -12 -12 -12 -12 -12 -12 -13 -13 -13 -13 -14 -14 -15 -15 -15 -16 -16 -16 -17 -17 -17 -17 -17 -18 -18 -18 -18 -19 -19 -19 -19 -19 -19 -19
-13 -13 -13 -12 -12 -12 -13 -13 -13 -13 -13 -13 -13 -13 -13 -13 -13 -14 -14 -14 -15 -15 -15 -16 -16 -17 -17 -17 -17 -17 -18 -18 -19 -19 -19 -20 -20 -19 -19 -19 -20 -20 -20
-13 -13 -12 -12 -12 -13 -13 -13 -13 -13 -13 -13 -13 -13 -13 -14 -14 -14 -15 -15 -15 -16 -16 -16 -17 -17 -18 -17 -18 -18 -18 -19 -19 -19 -20 -20 -20 -20 -20 -20 -20 -20 -21
-13 -13 -13 -13 -13 -13 -13 -13 -13 -13 -13 -14 -13 -14 -14 -14 -14 -15 -15 -16 -16 -16 -16 -17 -17 -17 -18 -18 -19 -19 -19 -19 -19 -19 -20 -20 -20 -20 -20 -20 -21 -21 -21
-14 -14 -14 -13 -13 -13 -13 -14 -13 -14 -14 -14 -14 -14 -14 -14 -15 -15 -16 -16 -16 -17 -18 -17 -18 -18 -18 -19 -20 -20 -20 -20 -20 -21 -20 -20 -21 -21 -21 -21 -21 -21 -21
-13 -14 -14 -14 -14 -14 -14 -14 -14 -14 -14 -14 -14 -15 -15 -16 -16 -16 -17 -17 -18 -18 -18 -18 -18 -18 -18 -20 -20 -21 -21 -21 -21 -21 -21 -21 -21 -21 -21 -21 -21 -22 -22
-15 -15 -15 -15 -14 -15 -14 -14 -15 -15 -15 -15 -16 -16 -16 -17 -17 -18 -18 -18 -18 -18 -18 -18 -18 -19 -20 -21 -21 -21 -21 -21 -21 -21 -21 -21 -21 -21 -21 -22 -22 -22 -22
-16 -16 -16 -16 -16 -15 -15 -15 -16 -16 -16 -17 -17 -17 -17 -18 -18 -18 -18 -18 -18 -18 -18 -18 -19 -19 -21 -21 -21 -21 -21 -21 -21 -21 -21 -21 -21 -21 -22 -22 -22 -23 -24
-16 -16 -16 -16 -16 -16 -16 -17 -17 -18 -18 -17 -17 -18 -18 -18 -18 -18 -18 -18 -18 -18 -18 -19 -19 -20 -21 -21 -21 -21 -21 -21 -21 -21 -21 -22 -22 -22 -22 -23 -23 -24 -25
-17 -17 -16 -16 -17 -17 -17 -17 -17 -18 -18 -18 -18 -18 -18 -18 -18 -18 -18 -18 -18 -18 -19 -19 -20 -21 -21 -21 -21 -21 -21 -21 -22 -22 -22 -22 -22 -23 -23 -24 -24 -25 -26
-17 -17 -17 -17 -17 -17 -17 -17 -17 -18 -18 -18 -19 -18 -18 -18 -18 -18 -18 -18 -19 -19 -20 -20 -20 -21 -21 -21 -21 -21 -22 -22 -22 -22 -22 -23 -23 -24 -24 -25 -26 -26 -27
-17 -17 -17 -17 -17 -17 -17 -17 -17 -18 -18 -18 -18 -19 -19 -19 -19 -19 -19 -19 -19 -19 -20 -20 -21 -22 -22 -21 -21 -22 -22 -22 -22 -22 -23 -23 -24 -25 -25 -26 -27 -27 -28
-17 -17 -17 -17 -17 -17 -17 -17 -17 -18 -18 -18 -18 -19 -19 -19 -19 -19 -19 -19 -20 -20 -20 -21 -21 -21 -22 -21 -22 -22 -22 -22 -22 -23 -23 -24 -25 -26 -26 -27 -28 -28 -29
-17 -17 -17 -17 -17 -17 -17 -18 -18 -18 -18 -18 -19 -19 -19 -19 -19 -19 -19 -20 -20 -20 -20 -21 -21 -21 -22 -22 -22 -22 -22 -23 -23 -23 -24 -24 -26 -27 -27 -28 -29 -29 -30
-18 -18 -18 -18 -18 -18 -18 -18 -18 -18 -18 -19 -19 -19 -19 -19 -20 -20 -20 -20 -20 -20 -21 -21 -21 -21 -22 -22 -22 -22 -23 -23 -23 -24 -25 -26 -27 -28 -28 -29 -29 -30 -31
-18 -18 -18 -18 -19 -19 -18 -19 -19 -19 -19 -19 -20 -20 -19 -20 -20 -20 -20 -20 -21 -21 -21 -21 -22 -22 -22 -22 -23 -23 -23 -23 -24 -25 -26 -27 -28 -28 -28 -30 -30 -31 -32
-19 -20 -19 -19 -19 -20 -20 -20 -20 -20 -19 -20 -20 -20 -20 -20 -20 -21 -21 -21 -21 -22 -22 -22 -22 -22 -22 -23 -23 -23 -24 -24 -25 -26 -27 -28 -28 -29 -30 -31 -31 -32 -33
-20 -21 -21 -21 -21 -21 -21 -20 -20 -20 -20 -20 -20 -20 -21 -21 -21 -21 -21 -22 -22 -22 -22 -22 -23 -23 -23 -23 -24 -24 -25 -26 -27 -28 -28 -29 -29 -30 -31 -31 -32 -32 -33
-21 -21 -21 -20 -20 -20 -21 -21 -21 -21 -21 -21 -21 -21 -21 -22 -22 -22 -22 -22 -22 -22 -23 -23 -23 -23 -24 -24 -25 -26 -26 -27 -28 -29 -29 -29 -30 -31 -31 -32 -32 -33 -33
-21 -21 -21 -21 -21 -21 -21 -21 -21 -21 -21 -21 -22 -22 -22 -22 -23 -23 -23 -23 -23 -24 -24 -24 -24 -25 -25 -26 -26 -27 -28 -28 -29 -29 -30 -30 -31 -31 -32 -32 -33 -33 -34
-21 -21 -21 -21 -21 -21 -21 -21 -21 -22 -22 -22 -23 -23 -23 -23 -23 -23 -24 -24 -24 -25 -25 -25 -26 -26 -27 -27 -27 -28 -29 -30 -30 -30 -31 -31 -31 -32 -32 -33 -33 -34 -34
-21 -21 -21 -21 -21 -21 -21 -22 -22 -22 -23 -23 -23 -23 -24 -24 -24 -24 -24 -25 -25 -25 -26 -27 -27 -27 -28 -28 -29 -30 -30 -30 -31 -31 -31 -32 -32 -33 -33 -34 -34 -34 -34
-22 -22 -22 -22 -22 -22 -23 -23 -23 -24 -24 -24 -24 -24 -25 -25 -25 -26 -25 -26 -26 -27 -27 -28 -29 -29 -29 -30 -30 -30 -31 -31 -31 -32 -32 -32 -33 -33 -34 -34 -34 -34 -34
-22 -23 -23 -23 -24 -24 -24 -24 -24 -24 -25 -25 -25 -25 -26 -26 -26 -27 -28 -28 -28 -28 -29 -29 -30 -30 -30 -31 -31 -31 -32 -32 -32 -32 -33 -33 -33 -34 -34 -34 -34 -34 -34
-24 -24 -24 -24 -25 -25 -25 -25 -25 -25 -26 -26 -26 -27 -27 -27 -28 -29 -29 -29 -29 -29 -29 -30 -30 -31 -31 -31 -31 -32 -32 -32 -33 -33 -33 -34 -34 -34 -34 -34 -34 -34 -34
-25 -25 -25 -26 -26 -26 -26 -26 -26 -26 -27 -27 -27 -27 -28 -29 -30 -30 -30 -30 -30 -30 -30 -30 -31 -31 -31 -31 -32 -32 -32 -33 -33 -33 -34 -34 -34 -34 -34 -34 -34 -34 -34
Height
5790 5791 5793 5794 5795 5795 5795 5794 5793 5793 5794 5793 5790 5787 5785 5782 5779 5775 5771 5768 5764 5761 5758 5754 5751 5747 5742 5737 5732 5725 5717 5708 5700 5694 5687 5681 5675 5668 5660 5652 5645 5635 5627
5779 5780 5782 5784 5785 5785 5785 5783 5781 5780 5780 5780 5778 5775 5773 5769 5766 5763 5759 5756 5752 5749 5746 5742 5739 5734 5729 5724 5719 5712 5705 5696 5688 5681 5675 5668 5663 5655 5647 5639 5630 5620 5611
5768 5768 5769 5771 5772 5772 5771 5771 5769 5769 5767 5766 5764 5762 5760 5757 5754 5750 5747 5744 5741 5737 5733 5730 5726 5721 5716 5711 5704 5698 5691 5685 5678 5670 5663 5658 5651 5644 5635 5623 5615 5603 5591
5754 5755 5756 5757 5758 5758 5758 5759 5758 5756 5755 5753 5751 5749 5747 5744 5741 5738 5735 5733 5729 5725 5721 5718 5713 5707 5702 5695 5689 5684 5677 5671 5665 5659 5652 5646 5638 5630 5622 5614 5599 5588 5576
5740 5741 5743 5744 5745 5745 5744 5744 5743 5742 5741 5739 5738 5736 5734 5731 5728 5726 5723 5720 5717 5714 5709 5705 5699 5693 5687 5681 5676 5669 5663 5658 5652 5647 5640 5634 5626 5618 5610 5600 5590 5577 5564
5728 5729 5730 5731 5731 5731 5731 5730 5730 5729 5728 5727 5725 5723 5721 5719 5716 5714 5711 5708 5705 5700 5696 5691 5685 5679 5673 5668 5662 5656 5651 5646 5640 5634 5628 5621 5613 5605 5595 5587 5576 5566 5555
5715 5716 5717 5718 5718 5718 5717 5717 5716 5715 5714 5713 5712 5710 5708 5705 5703 5701 5699 5695 5691 5687 5682 5677 5671 5666 5660 5654 5647 5642 5639 5633 5628 5623 5616 5609 5600 5590 5581 5570 5559 5549 5538
5703 5704 5704 5705 5706 5705 5704 5704 5704 5702 5701 5700 5699 5698 5696 5694 5691 5688 5685 5681 5677 5673 5667 5662 5657 5652 5646 5640 5634 5628 5624 5620 5614 5610 5604 5595 5586 5577 5565 5556 5545 5533 5519
5690 5691 5691 5692 5692 5692 5692 5691 5690 5689 5688 5688 5686 5685 5683 5680 5677 5674 5671 5667 5662 5657 5652 5648 5643 5639 5632 5626 5621 5615 5609 5605 5599 5593 5588 5581 5571 5562 5553 5542 5531 5519 5506
5677 5678 5679 5680 5680 5680 5679 5679 5678 5677 5676 5674 5673 5671 5668 5666 5662 5660 5655 5651 5647 5642 5638 5632 5628 5624 5618 5612 5607 5602 5596 5590 5584 5577 5570 5563 5556 5547 5538 5527 5516 5503 5492
5665 5666 5667 5668 5668 5667 5667 5667 5665 5664 5662 5660 5658 5656 5653 5650 5646 5642 5638 5635 5631 5626 5621 5617 5614 5608 5604 5599 5594 5588 5582 5576 5569 5562 5554 5546 5539 5532 5522 5512 5501 5491 5480
5652 5653 5653 5653 5654 5653 5652 5652 5650 5649 5648 5645 5642 5639 5636 5632 5628 5624 5622 5619 5614 5610 5606 5602 5598 5593 5589 5584 5579 5573 5567 5562 5555 5547 5540 5532 5524 5515 5507 5498 5488 5479 5469
5639 5639 5638 5637 5637 5636 5635 5635 5633 5632 5630 5628 5626 5623 5619 5616 5612 5609 5606 5602 5599 5595 5591 5587 5582 5578 5574 5569 5564 5559 5553 5547 5540 5533 5526 5518 5510 5501 5491 5483 5474 5467 5458
5624 5623 5623 5622 5621 5619 5618 5617 5616 5615 5614 5611 5609 5606 5603 5600 5597 5595 5591 5587 5584 5581 5575 5570 5567 5563 5559 5554 5548 5543 5537 5531 5524 5518 5511 5503 5495 5487 5478 5471 5462 5455 5446
5608 5608 5607 5607 5605 5604 5603 5602 5601 5599 5597 5594 5592 5589 5587 5586 5583 5579 5576 5573 5569 5565 5559 5555 5551 5547 5543 5538 5533 5528 5522 5515 5509 5502 5495 5488 5480 5473 5466 5458 5451 5442 5434
5593 5592 5591 5590 5590 5589 5588 5586 5585 5584 5582 5580 5578 5577 5574 5571 5567 5564 5561 5558 5553 5547 5544 5539 5535 5531 5526 5522 5517 5511 5505 5500 5493 5487 5480 5474 5467 5460 5453 5446 5438 5431 5423
5578 5576 5576 5576 5574 5574 5572 5572 5571 5569 5567 5566 5564 5561 5558 5556 5551 5548 5545 5541 5534 5531 5528 5523 5519 5514 5510 5505 5499 5494 5488 5483 5476 5470 5465 5459 5454 5447 5440 5432 5425 5418 5411
5562 5561 5560 5559 5559 5558 5557 5555 5554 5553 5552 5550 5547 5545 5542 5538 5535 5531 5528 5521 5519 5515 5511 5506 5501 5497 5493 5488 5482 5476 5470 5464 5459 5455 5449 5444 5439 5433 5426 5419 5411 5404 5398
5549 5547 5546 5545 5543 5542 5540 5539 5537 5535 5534 5533 5530 5527 5523 5520 5516 5513 5509 5506 5501 5496 5492 5489 5485 5480 5475 5469 5465 5459 5453 5449 5444 5439 5435 5430 5424 5418 5411 5405 5399 5393 5386
5533 5531 5530 5528 5526 5525 5523 5520 5518 5517 5515 5513 5510 5507 5503 5499 5497 5494 5491 5488 5484 5479 5474 5471 5466 5461 5455 5451 5446 5441 5437 5433 5429 5425 5420 5415 5409 5404 5398 5392 5385 5380 5374
5513 5512 5511 5509 5508 5506 5504 5502 5499 5497 5495 5493 5490 5486 5483 5478 5477 5474 5471 5467 5464 5459 5454 5450 5445 5440 5436 5431 5428 5423 5420 5417 5412 5408 5404 5399 5395 5389 5384 5378 5373 5368 5361
5492 5490 5489 5488 5486 5484 5482 5480 5479 5477 5474 5472 5469 5465 5460 5456 5453 5451 5448 5444 5439 5436 5432 5428 5424 5419 5416 5412 5409 5406 5402 5399 5396 5392 5388 5383 5379 5375 5369 5364 5360 5354 5347
5471 5469 5467 5464 5462 5460 5458 5456 5455 5452 5449 5447 5444 5442 5437 5434 5429 5426 5423 5419 5415 5413 5410 5407 5404 5400 5397 5394 5391 5387 5384 5382 5378 5374 5370 5367 5364 5359 5353 5349 5345 5339 5334
5446 5444 5442 5440 5438 5435 5433 5430 5427 5425 5423 5421 5418 5416 5412 5409 5406 5403 5400 5395 5391 5390 5389 5388 5384 5380 5378 5375 5372 5369 5365 5363 5362 5356 5353 5350 5346 5342 5338 5334 5330 5325 5319
5420 5418 5417 5414 5411 5408 5405 5403 5400 5398 5396 5393 5391 5388 5386 5383 5380 5378 5375 5373 5370 5369 5368 5366 5364 5361 5358 5356 5354 5351 5348 5345 5343 5339 5336 5333 5329 5326 5322 5319 5314 5310 5304
5393 5391 5389 5386 5383 5380 5378 5376 5374 5371 5369 5366 5364 5362 5360 5358 5357 5356 5354 5351 5348 5345 5344 5343 5341 5338 5335 5334 5332 5331 5329 5327 5324 5321 5318 5315 5311 5308 5305 5301 5298 5294 5288
Wind_Speed
55 56 56 54 52 52 53 52 52 52 49 50 50 53 53 54 56 56 57 57 56 53 52 52 50 50 53 57 61 64 68 72 62 58 57 55 54 57 60 63 66 71 76
57 57 57 57 56 55 54 54 54 53 52 53 53 54 56 57 58 58 58 56 53 52 52 51 51 54 59 62 63 67 70 65 58 56 54 51 54 58 62 66 70 76 80
61 59 58 59 58 56 56 56 55 55 55 54 55 56 58 58 58 57 56 54 52 52 52 52 55 60 62 65 66 69 67 61 56 55 53 53 57 60 65 71 75 80 85
61 60 61 61 60 57 55 55 57 56 56 56 56 59 59 58 56 56 54 52 52 52 54 55 59 65 66 68 67 67 60 55 55 56 54 57 61 66 69 72 79 84 89
59 58 59 59 57 56 56 56 57 58 58 58 57 57 57 56 52 53 51 51 52 56 56 61 66 67 72 69 67 61 56 55 57 58 56 60 64 70 72 76 81 87 92
59 58 57 57 58 57 56 56 57 57 57 55 54 51 54 57 52 48 50 53 54 58 64 68 70 74 71 64 59 57 54 58 57 59 60 64 68 73 74 79 84 89 93
55 53 55 57 56 55 54 53 53 52 51 52 54 53 50 46 55 57 59 59 62 65 69 73 77 68 62 60 58 55 57 59 60 61 65 66 71 75 78 82 87 92 95
57 57 55 52 51 50 47 49 50 49 49 50 50 49 51 52 50 52 57 63 68 72 74 75 68 62 60 59 57 57 59 61 61 63 68 69 73 77 81 85 90 94 95
51 49 50 51 53 54 52 53 53 54 51 51 48 50 51 53 59 65 68 71 69 70 70 65 60 61 59 58 57 59 62 62 64 67 68 71 74 79 83 88 91 93 89
54 58 61 60 57 53 52 52 53 52 50 53 56 57 59 64 65 69 69 67 68 67 64 63 63 60 55 58 59 62 63 65 67 69 70 73 77 81 84 87 88 84 80
58 60 60 60 59 59 59 59 60 58 58 60 62 66 68 70 70 69 69 68 67 66 63 63 59 55 58 59 61 62 65 67 69 70 72 76 79 81 83 83 82 78 77
54 56 57 58 59 59 59 60 60 61 65 68 67 65 66 67 68 69 68 67 64 60 56 53 54 57 59 61 62 65 66 68 70 73 75 77 80 78 79 79 75 73 74
46 47 48 49 51 55 59 63 65 65 65 65 65 64 64 66 67 67 65 63 59 55 54 53 58 59 60 62 64 66 67 68 71 74 77 80 78 77 76 74 72 71 70
53 53 54 55 55 56 56 56 56 57 59 62 64 65 66 66 62 59 58 56 54 55 55 59 60 60 62 64 65 66 68 71 73 75 79 79 76 74 71 69 68 69 66
53 53 53 54 55 55 56 58 59 61 63 63 64 63 58 57 57 58 57 57 59 55 58 60 62 63 65 65 67 69 70 73 76 79 78 75 71 70 67 66 67 66 63
53 53 53 54 54 54 56 58 60 61 62 62 61 62 61 60 61 61 62 61 57 59 62 63 65 66 66 67 69 71 74 78 79 77 73 71 70 67 66 65 62 63 60
50 48 48 49 50 50 52 53 55 57 57 59 62 63 62 63 64 63 63 59 60 63 63 67 67 67 68 69 71 75 78 79 76 73 71 69 65 63 62 62 59 60 58
51 49 49 50 51 52 55 56 57 57 58 60 62 63 63 62 60 61 62 64 66 66 67 67 68 69 71 75 77 78 77 75 70 68 68 64 61 60 60 60 59 59 57
54 55 56 56 57 58 58 58 58 58 57 60 62 63 62 61 61 62 65 67 67 68 69 69 71 74 77 78 78 77 74 70 68 66 63 59 61 60 59 59 59 57 56
56 57 57 58 60 62 64 62 62 63 64 65 64 64 65 65 62 62 64 66 67 69 70 72 77 78 77 76 74 75 73 67 65 62 60 59 60 60 59 60 58 54 55
59 61 62 63 65 66 66 66 66 66 64 64 64 65 66 67 67 67 68 69 70 73 76 78 77 76 74 74 78 73 67 64 60 60 60 59 62 61 59 59 55 55 53
66 66 67 68 68 68 69 69 70 70 70 70 70 71 71 73 75 75 75 75 76 77 76 76 74 74 77 75 71 68 66 63 60 61 60 59 60 57 56 55 56 54 53
72 73 74 74 75 75 76 76 76 76 76 77 78 77 77 76 74 73 74 75 77 77 74 73 74 73 69 67 68 67 65 64 61 61 58 57 55 53 53 55 58 54 54
81 80 80 81 81 83 84 84 84 83 81 80 80 78 76 75 74 72 72 72 75 76 72 72 68 64 62 66 66 67 65 65 62 59 57 56 53 52 53 57 57 53 55
86 86 87 86 85 85 84 83 82 82 82 81 79 77 76 74 74 71 70 70 73 74 73 70 70 66 67 70 69 65 65 63 61 58 55 57 55 54 56 59 56 57 58
85 86 86 85 84 83 83 83 83 83 83 83 83 82 80 76 70 70 72 74 75 74 74 73 68 70 71 71 67 65 67 61 61 57 59 60 59 60 60 60 59 58 57
Wind_Direction
252 253 254 256 259 261 263 265 267 269 270 272 271 274 276 278 281 282 284 286 287 288 286 285 288 294 301 304 307 305 311 310 309 309 309 309 308 308 312 313 314 315 318
253 255 257 259 260 263 265 265 266 268 269 270 272 274 275 277 279 282 284 285 286 284 284 286 291 297 302 303 304 309 310 308 308 310 310 309 310 312 314 315 316 319 320
253 254 257 259 260 260 262 264 266 268 269 270 271 273 276 278 281 283 284 285 283 283 285 287 293 299 299 305 306 309 309 308 308 310 308 310 313 314 316 317 320 321 324
252 255 257 257 259 260 263 265 266 266 268 270 271 273 276 278 280 283 284 282 282 283 285 290 296 296 302 306 308 309 307 309 309 309 308 312 313 315 316 319 321 325 326
253 255 257 259 261 261 262 263 265 267 269 272 275 276 279 280 281 281 280 279 283 284 289 292 294 301 303 305 306 306 307 308 306 308 309 310 312 315 317 320 323 325 326
252 253 255 257 259 261 263 264 266 270 272 273 275 276 281 281 278 277 282 282 284 287 289 293 297 299 306 305 305 304 303 305 305 306 306 308 311 315 317 320 323 325 323
252 257 258 259 260 262 261 263 266 268 272 275 277 278 275 273 279 279 281 282 284 288 293 295 298 304 306 303 301 301 298 302 302 304 304 307 312 315 318 321 323 323 324
256 257 258 260 261 264 267 269 270 270 273 276 277 274 275 277 276 277 281 285 289 294 294 295 300 303 302 300 299 298 297 299 300 301 304 308 313 316 319 321 321 321 326
256 255 258 263 265 269 269 269 272 272 275 274 274 275 274 273 274 278 281 285 290 294 296 299 301 300 299 297 294 295 297 298 299 300 304 310 314 318 320 320 321 324 327
258 260 261 264 266 267 268 270 273 278 276 276 280 281 280 280 283 286 288 290 291 295 296 299 300 300 295 292 293 294 295 297 299 302 308 312 317 318 318 320 324 327 327
259 260 262 265 267 267 267 270 273 274 276 277 276 278 279 283 285 287 288 289 292 295 299 299 299 294 291 291 292 293 295 298 300 303 308 314 316 316 319 323 326 326 326
261 262 263 265 267 267 268 269 267 267 271 274 278 280 282 282 284 288 291 294 297 298 293 296 295 290 291 291 291 293 295 298 301 305 309 313 315 320 322 324 324 324 325
266 267 266 267 267 268 268 269 269 270 272 273 275 277 279 282 284 286 290 294 293 290 289 293 289 289 289 290 292 295 297 301 304 307 310 313 317 320 323 323 323 323 324
265 265 265 265 266 266 267 268 269 270 271 272 274 276 276 280 284 288 288 287 288 288 291 286 286 287 289 292 294 296 299 302 306 308 310 314 317 320 321 320 320 320 322
270 270 269 268 266 267 268 269 270 270 271 273 274 277 279 280 282 282 284 286 285 288 283 285 287 289 292 294 296 298 300 304 305 306 310 315 319 319 317 317 318 318 318
272 271 270 270 270 270 270 270 269 271 272 273 275 276 276 278 280 281 282 285 286 282 284 287 288 290 293 295 297 300 301 302 303 307 312 316 316 315 314 315 315 316 313
273 273 273 272 271 270 271 272 273 274 275 276 277 276 276 276 278 280 283 285 280 283 285 287 289 291 293 295 296 297 298 299 303 308 312 314 312 311 311 312 312 311 309
274 275 277 278 278 277 276 275 274 275 275 275 275 275 275 275 279 279 278 278 280 283 284 287 289 291 292 292 294 295 298 301 307 310 310 309 308 309 310 311 310 309 308
269 272 274 277 278 278 278 277 278 277 275 274 274 274 279 281 282 277 275 278 281 283 285 286 287 287 287 289 291 294 297 304 305 306 305 304 307 310 308 308 307 306 305
268 273 276 277 276 274 274 274 274 274 274 275 276 279 282 283 282 280 280 281 283 284 284 283 282 284 287 289 291 294 300 300 302 303 301 306 308 311 306 304 304 303 304
273 273 273 274 273 273 273 274 274 276 278 279 281 283 284 284 284 284 286 286 284 280 280 281 284 286 287 287 292 295 296 298 298 300 304 306 309 306 301 301 302 302 305
277 278 278 278 277 277 278 278 278 279 280 281 282 283 284 284 286 286 286 284 281 281 282 282 282 282 285 290 291 293 295 295 296 301 301 304 306 302 298 299 301 302 305
279 279 279 279 280 281 281 282 282 283 284 284 285 285 284 283 279 277 278 277 277 277 278 279 281 284 287 287 287 289 291 293 293 296 297 300 299 301 296 295 302 301 303
281 281 281 281 281 281 282 282 283 284 283 283 282 280 278 277 275 274 273 273 275 279 279 280 282 284 285 284 283 286 287 288 290 291 292 295 296 294 296 295 298 302 302
279 280 280 281 281 281 281 281 281 281 280 280 279 279 278 276 276 276 275 270 269 271 275 277 274 280 279 278 278 280 282 282 284 286 288 290 291 293 293 295 292 299 299
277 277 278 278 278 278 278 277 276 276 276 276 276 275 274 272 267 264 264 263 265 264 265 267 266 269 272 273 275 275 277 280 280 281 286 288 289 289 294 290 294 296 295